Tracking 29528 objects as of 14-Sep-2024
HD Live streaming from Space Station
objects crossing your sky now

YAOGAN-31 K

Track YAOGAN-31 K now!
10-day predictions


NORAD ID: 47854
Int'l Code: 2021-020A
Perigee: 1,008.9 km
Apogee: 1,184.3 km
Inclination: 63.4 °
Period: 107.0 minutes
Semi major axis: 7467 km
RCS: Unknown
Launch date: March 13, 2021
Source: People's Republic of China (PRC)
Launch site: Jiuquan Satellite Launch Center, China (JSC)
Your satellite tracking list
Your tracking list is empty




NASA's NSSDC Master Catalog

Two Line Element Set (TLE):
1 47854U 21020A   24258.16491961  .00000061  00000-0  24416-3 0  9998
2 47854  63.4061 104.7855 0117465 358.1199   1.9370 13.45346488172332
Source of the keplerian elements: AFSPC